Location: Courcelles
(49.2596°N, 1.7419°E)
Time: 20:27:53
(UTC+00:00)

USA 215 - Pass Details

Date: 17 November 2025
Orbit: 1101 x 1106 km, 123.0° (Epoch: 02 December)

Event Time Altitude Azimuth Distance (km) Brightness Sun altitude
Rises 16:45:45 0° 122° (ESE) 3,915 5.8 -6.3°
Reaches altitude 10° 16:48:14 10° 123° (ESE) 2,960 5.2 -6.6°
Maximum altitude 16:54:47 88° 211° (SSW) 1,112 3.4 -7.6°
Drops below altitude 10° 17:01:23 10° 303° (WNW) 2,973 6.1 -8.6°
Sets 17:03:53 0° 304° (NW) 3,934 6.7 -9.0°
